Manistee, MI

6:16 AM EDT on May 28, 2018 (GMT -0400)
Manistee County-Blacker

Weather History for KMBL - June, 2014

Change the Weather History Date:

Friday, June 20, 2014

  Actual Average Record
Temperature  
Mean Temperature 58 °F -  
Max Temperature 62 °F 77 °F 95 °F (1953)
Min Temperature 53 °F 53 °F 39 °F (1948)
Degree Days  
Heating Degree Days 8    
Growing Degree Days 8 (Base 50)    
Moisture  
Dew Point 50 °F    
Average Humidity 75    
Maximum Humidity 94    
Minimum Humidity 31    
Precipitation  
Precipitation 0.18 in - - ()
Sea Level Pressure  
Sea Level Pressure 30.04 in    
Wind  
Wind Speed 8 mph (ESE)    
Max Wind Speed 12 mph    
Max Gust Speed -    
Visibility 9 miles    
Events      
Averages and records for this station are not official NWS values.
T = Trace of Precipitation, MM = Missing Value Source: NWS Daily Summary

Daily Weather History Graph

Daily Weather History Graph

Search for Another Location

Airport or City:

Astronomy

Jun. 20, 2014 Rise Set
Actual Time 6:00 AM EDT 9:32 PM EDT
Civil Twilight 5:24 AM EDT 10:08 PM EDT
Nautical Twilight 4:35 AM EDT 10:57 PM EDT
Astronomical Twilight 3:33 AM EDT 11:59 PM EDT
Moon 1:52 AM EDT (6/20) 2:54 PM EDT (6/20)
Length of Visible Light 16h 44m
Length of Day
15h 31m
Last Quarter, 40% of the Moon is Illuminated
Jun 20
Last Quarter
Jun 27
New
Jul 5
First Quarter
Jul 12
Full
Jul 18
Last Quarter

Hourly Weather History & Observations

Time (EDT) Temp. Dew Point Humidity Pressure Visibility Wind Dir Wind Speed Gust Speed Precip Events Conditions
12:15 AM 62.6 °F 50.0 °F 63% 30.12 in 10.0 mi East 9.2 mph - N/A   Clear
12:35 AM 62.6 °F 48.2 °F 59% 30.10 in 10.0 mi East 9.2 mph - N/A   Clear
12:55 AM 62.6 °F 44.6 °F 52% 30.11 in 10.0 mi ESE 9.2 mph - N/A   Clear
1:15 AM 62.6 °F 39.2 °F 42% 30.12 in 10.0 mi ESE 8.1 mph - N/A   Clear
1:35 AM 62.6 °F 37.4 °F 39% 30.11 in 10.0 mi ESE 10.4 mph - N/A   Clear
1:55 AM 62.6 °F 37.4 °F 39% 30.10 in 10.0 mi ESE 8.1 mph - N/A   Partly Cloudy
2:15 AM 62.6 °F 35.6 °F 37% 30.10 in 10.0 mi East 9.2 mph - N/A   Clear
2:35 AM 60.8 °F 35.6 °F 39% 30.09 in 10.0 mi East 10.4 mph - N/A   Clear
2:55 AM 60.8 °F 33.8 °F 36% 30.09 in 10.0 mi East 8.1 mph - N/A   Partly Cloudy
3:15 AM 60.8 °F 33.8 °F 36% 30.09 in 10.0 mi ESE 8.1 mph - N/A   Mostly Cloudy
3:35 AM 60.8 °F 32.0 °F 34% 30.08 in 10.0 mi East 9.2 mph - N/A   Overcast
3:55 AM 60.8 °F 32.0 °F 34% 30.06 in 10.0 mi East 11.5 mph - N/A   Mostly Cloudy
4:15 AM 60.8 °F 30.2 °F 31% 30.06 in 10.0 mi ESE 9.2 mph - N/A   Mostly Cloudy
4:35 AM 60.8 °F 32.0 °F 34% 30.06 in 10.0 mi East 10.4 mph - N/A   Mostly Cloudy
4:55 AM 60.8 °F 33.8 °F 36% 30.06 in 10.0 mi East 8.1 mph - N/A   Overcast
5:15 AM 60.8 °F 35.6 °F 39% 30.06 in 10.0 mi ESE 5.8 mph - N/A   Overcast
5:35 AM 59.0 °F 37.4 °F 45% 30.06 in 10.0 mi ESE 5.8 mph - N/A   Overcast
5:55 AM 57.2 °F 41.0 °F 55% 30.05 in 10.0 mi ESE 9.2 mph - N/A   Overcast
6:15 AM 55.4 °F 44.6 °F 67% 30.05 in 10.0 mi East 8.1 mph - N/A   Overcast
6:35 AM 55.4 °F 46.4 °F 72% 30.05 in 10.0 mi ESE 6.9 mph - N/A   Overcast
6:55 AM 55.4 °F 46.4 °F 72% 30.06 in 10.0 mi East 5.8 mph - N/A   Overcast
7:15 AM 55.4 °F 48.2 °F 77% 30.05 in 9.0 mi East 8.1 mph - N/A   Overcast
7:35 AM 55.4 °F 48.2 °F 77% 30.06 in 5.0 mi ESE 5.8 mph - 0.05 in   Overcast
7:55 AM 53.6 °F 48.2 °F 82% 30.07 in 5.0 mi East 6.9 mph - 0.06 in   Overcast
8:15 AM 53.6 °F 50.0 °F 88% 30.06 in 5.0 mi ESE 10.4 mph - N/A   Overcast
8:35 AM 53.6 °F 50.0 °F 88% 30.06 in 10.0 mi ESE 11.5 mph - N/A   Overcast
8:55 AM 55.4 °F 50.0 °F 82% 30.06 in 10.0 mi East 11.5 mph - 0.01 in   Overcast
9:15 AM 55.4 °F 51.8 °F 88% 30.05 in 10.0 mi ESE 11.5 mph - N/A   Overcast
9:35 AM 55.4 °F 51.8 °F 88% 30.05 in 10.0 mi ESE 10.4 mph - N/A   Overcast
9:55 AM 55.4 °F 51.8 °F 88% 30.04 in 10.0 mi ESE 11.5 mph - N/A   Overcast
10:15 AM 55.4 °F 53.6 °F 94% 30.04 in 10.0 mi East 9.2 mph - N/A   Overcast
10:35 AM 55.4 °F 53.6 °F 94% 30.04 in 10.0 mi ESE 9.2 mph - N/A   Overcast
10:55 AM 57.2 °F 53.6 °F 88% 30.04 in 10.0 mi ESE 5.8 mph - 0.01 in   Overcast
11:15 AM 57.2 °F 53.6 °F 88% 30.04 in 10.0 mi East 6.9 mph - N/A   Overcast
11:35 AM 57.2 °F 55.4 °F 94% 30.03 in 9.0 mi ESE 8.1 mph - 0.02 in   Overcast
11:55 AM 57.2 °F 55.4 °F 94% 30.02 in 10.0 mi ESE 10.4 mph - 0.04 in   Mostly Cloudy
12:15 PM 57.2 °F 55.4 °F 94% 30.03 in 9.0 mi ESE 6.9 mph - 0.01 in   Overcast
12:35 PM 57.2 °F 53.6 °F 88% 30.02 in 10.0 mi ESE 8.1 mph - 0.02 in   Overcast
12:55 PM 57.2 °F 55.4 °F 94% 30.03 in 10.0 mi SE 9.2 mph - 0.02 in   Overcast
1:15 PM 57.2 °F 55.4 °F 94% 30.02 in 10.0 mi ESE 9.2 mph - N/A   Overcast
1:35 PM 59.0 °F 55.4 °F 88% 30.01 in 10.0 mi ESE 11.5 mph - N/A   Overcast
1:55 PM 59.0 °F 55.4 °F 88% 30.01 in 10.0 mi SE 8.1 mph - N/A   Overcast
2:15 PM 59.0 °F 55.4 °F 88% 30.01 in 10.0 mi ESE 11.5 mph - N/A   Overcast
2:35 PM 59.0 °F 55.4 °F 88% 30.01 in 10.0 mi SE 6.9 mph - N/A   Overcast
2:55 PM 59.0 °F 55.4 °F 88% 30.01 in 10.0 mi SE 8.1 mph - N/A   Overcast
3:15 PM 60.8 °F 57.2 °F 88% 30.01 in 10.0 mi SE 5.8 mph - N/A   Overcast
4:15 PM 60.8 °F 57.2 °F 88% 30.00 in 10.0 mi SE 9.2 mph - N/A   Overcast
4:35 PM 60.8 °F 57.2 °F 88% 30.00 in 10.0 mi SE 6.9 mph - N/A   Overcast
4:55 PM 60.8 °F 57.2 °F 88% 30.00 in 10.0 mi SE 6.9 mph - N/A   Overcast
5:15 PM 60.8 °F 57.2 °F 88% 30.01 in 10.0 mi SE 4.6 mph - N/A   Overcast
5:35 PM 60.8 °F 57.2 °F 88% 30.01 in 7.0 mi SE 4.6 mph - 0.01 in   Overcast
5:55 PM 60.8 °F 57.2 °F 88% 30.01 in 5.0 mi SE 3.5 mph - 0.02 in   Overcast
6:15 PM 60.8 °F 57.2 °F 88% 30.02 in 5.0 mi NE 5.8 mph - N/A   Overcast
6:35 PM 60.8 °F 57.2 °F 88% 30.02 in 2.5 mi ENE 6.9 mph - 0.01 in   Overcast
6:55 PM 60.8 °F 57.2 °F 88% 30.01 in 3.0 mi ESE 6.9 mph - 0.02 in   Overcast
7:15 PM 60.8 °F 57.2 °F 88% 30.00 in 7.0 mi ESE 6.9 mph - N/A   Overcast
7:35 PM 60.8 °F 57.2 °F 88% 30.00 in 10.0 mi ESE 6.9 mph - N/A   Overcast
7:55 PM 60.8 °F 57.2 °F 88% 29.99 in 10.0 mi ESE 6.9 mph - N/A   Overcast
8:15 PM 60.8 °F 57.2 °F 88% 29.99 in 10.0 mi ESE 6.9 mph - N/A   Overcast
8:35 PM 60.8 °F 57.2 °F 88% 30.00 in 10.0 mi East 5.8 mph - N/A   Overcast
8:55 PM 60.8 °F 57.2 °F 88% 30.00 in 10.0 mi SE 3.5 mph - N/A   Overcast
9:15 PM 60.8 °F 57.2 °F 88% 30.00 in 10.0 mi Calm Calm - N/A   Overcast
9:55 PM 60.8 °F 57.2 °F 88% 30.00 in 10.0 mi Calm Calm - N/A   Overcast
10:15 PM 60.8 °F 57.2 °F 88% 30.00 in 10.0 mi East 3.5 mph - N/A   Overcast
10:35 PM 60.8 °F 57.2 °F 88% 30.01 in 10.0 mi Calm Calm - N/A   Overcast
10:55 PM 60.8 °F 57.2 °F 88% 30.01 in 10.0 mi ESE 4.6 mph - N/A   Overcast
11:15 PM 60.8 °F 57.2 °F 88% 30.00 in 10.0 mi East 4.6 mph - N/A   Overcast
11:35 PM 60.8 °F 57.2 °F 88% 30.00 in 10.0 mi ESE 3.5 mph - N/A   Overcast
11:55 PM 60.8 °F 57.2 °F 88% 30.01 in 6.0 mi Calm Calm - N/A   Overcast